Location: *
(46.1866°S, 178.5290°W)
Time: 14:05:58
(UTC+00:00)

Cosmos 1461 - Pass Details

Date: 29 September 2021
Orbit: 520 x 642 km, 65.0° (Epoch: 24 October)

Event Time Altitude Azimuth Distance (km) Brightness Sun altitude
Rises 15:48:46 0° 211° (SSW) 2,921 6.4 -17.5°
Reaches altitude 10° 15:51:17 10° 199° (SSW) 2,028 5.7 -17.1°
Maximum altitude 15:55:20 29° 138° (SE) 1,176 5.1 -16.4°
Drops below altitude 10° 15:59:25 10° 77° (ENE) 2,050 6.6 -15.8°
Sets 16:01:58 0° 66° (ENE) 2,959 7.3 -15.4°
